Regional Weather Roundup
Issued by NWS Kansas City/Pleasant Hill, MO

Home | Current Version | Previous Version | Text Only | Print | Product List | Glossary On
Versions: 1 2 3 4 5 6 7 8 9 10 11 12 13 14 15 16 17 18 19 20 21 22 23 24 25 26 27 28 29 30 31 32 33 34 35 36 37 38 39 40 41 42 43 44 45 46 47 48 49 50
000
ASUS43 KEAX 200811
RWREAX

WEATHER ROUNDUP FOR EASTERN KANSAS AND NORTHWEST MISSOURI
NATIONAL WEATHER SERVICE KANSAS CITY/PLEASANT HILL MO
200 AM CST SAT DEC 20 2014

KSZ040-057-103>105-MOZ028-029-037-043-200900-
...KANSAS CITY METROPOLITAN AREA...

CITY           SKY/WX    TMP DP  RH WIND       PRES   REMARKS
K.C. INTL      CLOUDY    32  31  96 S7        30.18S FOG     WCI  26
K.C. DOWNTOWN  CLOUDY    34  31  88 SW5       30.19F WCI  30
LEES SUMMIT    CLOUDY    34  32  92 SW6       30.19F WCI  29
OLATHE - IXD   CLOUDY    32  31  96 S9        30.19F FOG     WCI  24
OLATHE - OJC   CLOUDY    33  32  96 SW7       30.18F FOG     WCI  27
LAWRENCE       CLOUDY    33  29  85 SW8       30.20F WCI  26

$$

MOZ001>008-011>017-020>025-030>033-038>040-044>046-053-054-200900-
...NORTHERN AND CENTRAL MISSOURI...

CITY           SKY/WX    TMP DP  RH WIND       PRES   REMARKS
ST. JOSEPH     CLOUDY    32  29  88 S7        30.20S WCI  26
MOSBY          CLOUDY    32  32 100 S3        30.19F FOG
WARRENSBURG    CLOUDY    36  34  93 CALM      30.21R FOG
WHITEMAN AFB   FOG       37  36  97 S3        30.20S VSB 1
CLINTON        FOG       37  37 100 CALM      30.21S VSB 1/4
SEDALIA        FOG       37  36  96 SE5       30.20F VSB 3/4 WCI  33
WARSAW         NOT AVBL
MARSHALL       FOG       37  37 100 SE5       30.22  VSB 1   WCI  34
CHILLICOTHE      N/A     34  32  92 CALM      30.21F
KIRKSVILLE     CLOUDY    32  32 100 SE7       30.21F FOG     WCI  26

$$

MOZ041-047>049-056>058-063>065-088>090-097-200900-
...EASTERN AND SOUTHERN MISSOURI...

CITY           SKY/WX    TMP DP  RH WIND       PRES   REMARKS
ST. LOUIS INTL CLOUDY    36  26  67 SE6       30.26F WCI  31
SPIRIT OF STL  CLOUDY    35  29  78 CALM      30.25F
COLUMBIA       CLOUDY    35  33  92 SE5       30.21F FOG     WCI  31
JEFFERSON CITY CLOUDY    36  33  89 E3        30.23F FOG
MEXICO         CLOUDY   N/A N/A N/A SE5       30.23S HAZE
ROLLA          CLOUDY    34  32  92 SE5       30.20R FOG     WCI  30
LEBANON        CLOUDY    36  34  93 S3        30.20S
OSAGE BEACH    CLOUDY    37  34  87 CALM      30.20F
SPRINGFIELD    CLOUDY    37  35  92 S7        30.19R WCI  32
BRANSON        CLOUDY    37  36  93 CALM      30.21R FOG
NEVADA         FOG       36  36 100 NW5       30.22S VSB 1/2 WCI  32
JOPLIN         CLOUDY    38  37  97 CALM      30.21S FOG
WEST PLAINS    LGT SNOW  33  31  92 E3        30.21S FOG

$$

IAZ060-094-KSZ022-034>040-054-083-096-NEZ052-066-093-200900-
...KANSAS...SOUTHEAST NEBRASKA AND IOWA...

CITY           SKY/WX    TMP DP  RH WIND       PRES   REMARKS
TOPEKA         CLOUDY    34  30  85 SE6       30.18F WCI  29
MANHATTAN      CLEAR     33  30  88 S5        30.14S WCI  29
EMPORIA        CLOUDY    33  31  92 S8        30.18F WCI  26
CHANUTE        CLOUDY    35  34  96 CALM      30.22R FOG
WICHITA        MOCLDY    36  33  89 S8        30.16F WCI  30
OMAHA          FRZ DRZL  31  30  96 S13       30.14S FOG     WCI  21
LINCOLN        CLOUDY    33  30  88 SE8       30.10F WCI  26
FALLS CITY     CLOUDY    31  28  89 SE10      30.15F WCI  22
LAMONI         CLOUDY    30  30 100 S5        30.18S FOG     WCI  25
DES MOINES     LGT SNOW  32  30  92 S5        30.18S FOG     WCI  27

$$




USA.gov is the U.S. government's official web portal to all federal, state and local government web resources and services.